• In Latvia
  • List of Countries
  • For 7 days
  • Water Temperature
  • Satellite Maps
  • Weather Map
  • Weather Widgets
  • user-avatar
    Login

    Hourly Weather Jewłach

    Today, 26 September, Tuesday

    Time Temperature Precipitation Wind Pressure Humidity
    00:00 +23°C° 0 mm 4 mps 764 mmHg 54%
    01:00 +23°C° 0 mm 4 mps 764 mmHg 56%
    02:00 +22°C° 0 mm 3 mps 764 mmHg 58%
    03:00 +21°C° 0 mm 2 mps 764 mmHg 60%
    04:00 +21°C° 0 mm 2 mps 764 mmHg 61%
    05:00 +20°C° 0 mm 2 mps 764 mmHg 63%
    06:00 +21°C° 0 mm 1 mps 764 mmHg 64%
    07:00 +21°C° 0 mm 2 mps 763 mmHg 59%
    08:00 +24°C° 0 mm 3 mps 763 mmHg 55%
    09:00 +25°C° 0 mm 3 mps 763 mmHg 50%
    10:00 +26°C° 0 mm 3 mps 763 mmHg 48%
    11:00 +27°C° 0 mm 3 mps 763 mmHg 46%
    12:00 +28°C° 0 mm 4 mps 763 mmHg 44%
    13:00 +28°C° 0 mm 4 mps 762 mmHg 44%
    14:00 +28°C° 0 mm 5 mps 762 mmHg 45%
    15:00 +28°C° 0 mm 5 mps 762 mmHg 45%
    16:00 +27°C° 0 mm 5 mps 762 mmHg 49%
    17:00 +26°C° 0 mm 5 mps 762 mmHg 53%
    18:00 +24°C° 0 mm 6 mps 763 mmHg 56%
    19:00 +23°C° 0 mm 6 mps 763 mmHg 58%
    20:00 +22°C° 0 mm 6 mps 763 mmHg 60%
    21:00 +22°C° 0 mm 6 mps 763 mmHg 62%
    22:00 +21°C° 0 mm 5 mps 763 mmHg 63%
    23:00 +21°C° 0 mm 5 mps 763 mmHg 65%

    Tomorrow, 27 September, Wednesday

    Time Temperature Precipitation Wind Pressure Humidity
    00:00 +20°C° 0 mm 4 mps 763 mmHg 66%
    01:00 +20°C° 0.2 mm 4 mps 763 mmHg 67%
    02:00 +20°C° 0.2 mm 3 mps 763 mmHg 68%
    03:00 +19°C° 0.2 mm 3 mps 763 mmHg 69%
    04:00 +19°C° 0.2 mm 2 mps 763 mmHg 71%
    05:00 +19°C° 0.2 mm 2 mps 763 mmHg 72%
    06:00 +19°C° 0.2 mm 2 mps 763 mmHg 73%
    07:00 +19°C° 0.1 mm 2 mps 763 mmHg 73%
    08:00 +19°C° 0.1 mm 2 mps 763 mmHg 72%
    09:00 +19°C° 0.1 mm 2 mps 763 mmHg 71%
    10:00 +20°C° 0.1 mm 3 mps 763 mmHg 70%
    11:00 +20°C° 0.1 mm 3 mps 763 mmHg 68%
    12:00 +21°C° 0.1 mm 3 mps 763 mmHg 67%
    13:00 +21°C° 0 mm 3 mps 762 mmHg 67%
    14:00 +21°C° 0 mm 3 mps 762 mmHg 66%
    15:00 +21°C° 0 mm 3 mps 762 mmHg 66%
    16:00 +21°C° 0.1 mm 3 mps 762 mmHg 69%
    17:00 +20°C° 0.1 mm 3 mps 762 mmHg 71%
    18:00 +19°C° 0.1 mm 4 mps 762 mmHg 74%
    19:00 +19°C° 0.8 mm 3 mps 763 mmHg 75%
    20:00 +19°C° 0.8 mm 3 mps 763 mmHg 75%
    21:00 +19°C° 0.8 mm 3 mps 763 mmHg 76%
    22:00 +18°C° 0.4 mm 3 mps 763 mmHg 76%
    23:00 +18°C° 0.4 mm 4 mps 763 mmHg 77%

    Day after tomorrow, 28 September, Thursday

    Time Temperature Precipitation Wind Pressure Humidity
    00:00 +18°C° 0.4 mm 4 mps 763 mmHg 78%
    01:00 +17°C° 0.3 mm 4 mps 763 mmHg 79%
    02:00 +17°C° 0.3 mm 4 mps 763 mmHg 79%
    03:00 +17°C° 0.3 mm 4 mps 763 mmHg 80%
    04:00 +17°C° 0.5 mm 4 mps 763 mmHg 80%
    05:00 +17°C° 0.5 mm 4 mps 764 mmHg 79%
    06:00 +17°C° 0.5 mm 4 mps 764 mmHg 78%
    07:00 +17°C° 0.6 mm 4 mps 764 mmHg 78%
    08:00 +17°C° 0.6 mm 4 mps 764 mmHg 78%
    09:00 +16°C° 0.6 mm 5 mps 765 mmHg 77%
    10:00 +17°C° 0.5 mm 4 mps 765 mmHg 77%
    11:00 +17°C° 0.5 mm 4 mps 765 mmHg 77%
    12:00 +17°C° 0.5 mm 4 mps 765 mmHg 78%
    13:00 +17°C° 0.3 mm 4 mps 765 mmHg 77%
    14:00 +17°C° 0.3 mm 4 mps 765 mmHg 76%
    15:00 +17°C° 0.3 mm 3 mps 765 mmHg 76%
    16:00 +17°C° 0.2 mm 3 mps 765 mmHg 77%
    17:00 +16°C° 0.2 mm 3 mps 766 mmHg 77%
    18:00 +16°C° 0.2 mm 3 mps 766 mmHg 78%
    19:00 +16°C° 0.6 mm 3 mps 766 mmHg 79%
    20:00 +16°C° 0.6 mm 3 mps 767 mmHg 80%
    21:00 +16°C° 0.6 mm 2 mps 767 mmHg 82%
    22:00 +16°C° 0.9 mm 2 mps 767 mmHg 83%
    23:00 +15°C° 0.9 mm 2 mps 767 mmHg 85%

    29 September, Friday

    Time Temperature Precipitation Wind Pressure Humidity
    00:00 +15°C° 0.9 mm 2 mps 767 mmHg 86%
    01:00 +15°C° 1.1 mm 2 mps 767 mmHg 87%
    02:00 +15°C° 1.1 mm 2 mps 767 mmHg 88%
    03:00 +15°C° 1.1 mm 2 mps 767 mmHg 88%
    04:00 +15°C° 0.6 mm 2 mps 767 mmHg 89%
    05:00 +15°C° 0.6 mm 2 mps 767 mmHg 89%
    06:00 +15°C° 0.6 mm 2 mps 767 mmHg 89%
    07:00 +15°C° 0.5 mm 2 mps 767 mmHg 88%
    08:00 +15°C° 0.5 mm 2 mps 767 mmHg 87%
    09:00 +16°C° 0.5 mm 3 mps 767 mmHg 85%
    10:00 +16°C° 0.3 mm 3 mps 767 mmHg 84%
    11:00 +16°C° 0.3 mm 3 mps 767 mmHg 82%
    12:00 +16°C° 0.3 mm 3 mps 767 mmHg 80%
    13:00 +16°C° 0.1 mm 3 mps 767 mmHg 79%
    14:00 +16°C° 0.1 mm 3 mps 766 mmHg 78%
    15:00 +16°C° 0.1 mm 2 mps 766 mmHg 76%
    16:00 +16°C° 0 mm 2 mps 766 mmHg 78%
    17:00 +16°C° 0 mm 2 mps 766 mmHg 79%
    18:00 +16°C° 0 mm 2 mps 766 mmHg 80%
    19:00 +16°C° 0 mm 2 mps 767 mmHg 79%
    20:00 +16°C° 0 mm 2 mps 767 mmHg 77%
    21:00 +16°C° 0 mm 2 mps 767 mmHg 76%
    22:00 +16°C° 0 mm 2 mps 766 mmHg 75%
    23:00 +16°C° 0 mm 2 mps 766 mmHg 74%

    30 September, Saturday

    Time Temperature Precipitation Wind Pressure Humidity
    00:00 +16°C° 0 mm 2 mps 766 mmHg 73%
    01:00 +16°C° 0 mm 1 mps 765 mmHg 72%
    02:00 +16°C° 0 mm 1 mps 765 mmHg 71%
    03:00 +16°C° 0 mm 1 mps 764 mmHg 70%
    04:00 +16°C° 0 mm 1 mps 764 mmHg 70%
    05:00 +15°C° 0 mm 1 mps 764 mmHg 71%
    06:00 +15°C° 0 mm 1 mps 764 mmHg 71%
    07:00 +16°C° 0 mm 1 mps 764 mmHg 67%
    08:00 +18°C° 0 mm 1 mps 763 mmHg 64%
    09:00 +19°C° 0 mm 1 mps 763 mmHg 60%
    10:00 +20°C° 0 mm 1 mps 763 mmHg 57%
    11:00 +20°C° 0 mm 2 mps 762 mmHg 54%
    12:00 +21°C° 0 mm 2 mps 762 mmHg 52%
    13:00 +23°C° 0 mm 2 mps 761 mmHg 50%
    14:00 +23°C° 0 mm 1 mps 760 mmHg 49%
    15:00 +24°C° 0 mm 1 mps 760 mmHg 48%
    16:00 +23°C° 0 mm 1 mps 760 mmHg 52%
    17:00 +22°C° 0 mm 1 mps 760 mmHg 55%
    18:00 +21°C° 0 mm 1 mps 760 mmHg 59%
    19:00 +21°C° 0.3 mm 1 mps 761 mmHg 62%
    20:00 +20°C° 0.3 mm 1 mps 761 mmHg 65%
    21:00 +19°C° 0.3 mm 2 mps 761 mmHg 68%
    22:00 +19°C° 0.4 mm 2 mps 760 mmHg 71%
    23:00 +18°C° 0.4 mm 2 mps 760 mmHg 74%

    1 October, Sunday

    Time Temperature Precipitation Wind Pressure Humidity
    00:00 +18°C° 0.4 mm 2 mps 760 mmHg 77%
    01:00 +18°C° 0 mm 2 mps 760 mmHg 77%
    02:00 +18°C° 0 mm 3 mps 760 mmHg 77%
    03:00 +18°C° 0 mm 3 mps 760 mmHg 77%
    04:00 +18°C° 0 mm 3 mps 760 mmHg 76%
    05:00 +18°C° 0 mm 3 mps 761 mmHg 75%
    06:00 +17°C° 0 mm 3 mps 761 mmHg 73%
    07:00 +19°C° 0 mm 3 mps 761 mmHg 66%
    08:00 +20°C° 0 mm 4 mps 761 mmHg 59%
    09:00 +22°C° 0 mm 4 mps 761 mmHg 52%
    10:00 +24°C° 0 mm 3 mps 761 mmHg 48%
    11:00 +25°C° 0 mm 3 mps 761 mmHg 43%
    12:00 +26°C° 0 mm 3 mps 760 mmHg 39%
    13:00 +27°C° 0 mm 2 mps 760 mmHg 38%
    14:00 +27°C° 0 mm 2 mps 760 mmHg 38%
    15:00 +27°C° 0 mm 1 mps 760 mmHg 37%
    16:00 +26°C° 0 mm 1 mps 760 mmHg 40%
    17:00 +25°C° 0 mm 1 mps 761 mmHg 44%
    18:00 +24°C° 0 mm 2 mps 761 mmHg 47%
    19:00 +24°C° 0 mm 2 mps 762 mmHg 51%
    20:00 +22°C° 0 mm 3 mps 762 mmHg 55%
    21:00 +22°C° 0 mm 4 mps 762 mmHg 58%
    22:00 +21°C° 0.2 mm 4 mps 762 mmHg 61%
    23:00 +21°C° 0.2 mm 3 mps 762 mmHg 63%
    Show more